World > North America > United States > Nevada

Stead, Nevada Regional Weather

Lat: 39.64N, Lon: 119.88W
Wx Zone: NVZ003
Feedback

Stead, NV Regional Weather

Expires:201909160300;;854249
ASUS45 KREV 160210
RWRNV 
NEVADA REGIONAL WEATHER ROUNDUP
NATIONAL WEATHER SERVICE RENO NV
700 PM PDT SUN SEP 15 2019

NOTE: "FAIR" INDICATES FEW OR NO CLOUDS BELOW 12,000 FEET WITH NO
SIGNIFICANT WEATHER AND/OR OBSTRUCTIONS TO VISIBILITY.


NVZ001-003-004-160300-
WESTERN NEVADA
  
CITY           SKY/WX    TMP DP  RH WIND       PRES   REMARKS
RENO           PTCLDY    77  28  16 S14       29.88S                  
CARSON CITY    FAIR      75  23  14 W12G17    29.90S                  
MINDEN         FAIR      73  28  19 S21G29    29.92S                  
FALLON         MOCLDY    80  27  14 W17G24    29.81S                  
LOVELOCK       MOCLDY    78  31  17 W9        29.80F                  
HAWTHORNE      CLEAR     82  23  11 W18       29.84S                  
$$


SKY/WX - Weather  TMP - Temperature  DP - Dew Point  RH - Relative Humidity
WIND - Wind Direction/Speed PRES - Barometric Pressure VSB - Visibility
WCI - Wind Chill Index E13G22 Wind - East Wind 13 mph/Gusts of 22 mph